Regional Weather Roundup
Issued by NWS Lake Charles, LA

Current Version | Previous Version | Text Only | Print | Product List | Glossary On
Versions: 1 2 3 4 5 6 7 8 9 10 11 12 13 14 15 16 17 18 19 20 21 22 23 24 25 26 27 28 29 30 31 32 33 34 35 36 37 38 39 40 41 42 43 44 45 46 47 48 49
000
ASUS44 KLCH 281910
RWRLCH
RWRLCH
REGIONAL WEATHER ROUNDUP
NATIONAL WEATHER SERVICE LAKE CHARLES LA
200 PM CDT FRI AUG 28 2015

Note: "fair" indicates few or no clouds below 12,000 feet with no
significant weather and/or obstructions to visibility.


ACROSS SOUTHEAST TEXAS

CITY           SKY/WX    TMP DP  RH WIND       PRES   REMARKS
BEAUMONT       PTSUNNY   86  68  54 SW5       29.99F
BEAUMONT CITY    N/A     87  67  50 CALM      30.00F
ORANGE         PTCLDY    87  60  39 CALM      30.01F
JASPER         SUNNY     90  64  41 N3        30.03F
$$

ACROSS CENTRAL LOUISIANA

CITY           SKY/WX    TMP DP  RH WIND       PRES   REMARKS
LEESVILLE      SUNNY     88  61  40 E7        29.99F
FULLERTON        N/A     91  57  31 N6        29.97F
ALEXANDRIA INT SUNNY     89  56  32 NE3       29.99F
ESLER FIELD    SUNNY     92  58  31 VRB5      30.00F
DERIDDER         N/A     89  55  31 E5        30.02F
OAKDALE          N/A     89  60  37 CALM      30.00F
OPELOUSAS        N/A     88  58  36 N5        30.00F
$$

ACROSS SOUTHWEST AND SOUTH CENTRAL LOUISIANA

CITY           SKY/WX    TMP DP  RH WIND       PRES   REMARKS
SULPHUR        CLEAR     90  56  31 CALM      30.00F
LAKE CHARLES   SUNNY     89  58  34 NE6       29.99F
CHENNAULT INT  NOT AVBL
CAMERON PHI    CLEAR     84  64  51 SW9       30.03F
DEQUINCY         N/A     88  60  39 CALM      30.00F
JENNINGS         N/A     86  61  42 N5        30.00F
LAFAYETTE      SUNNY     89  60  37 VRB3      30.00F
NEW IBERIA     SUNNY     90  61  37 VRB3      30.00F
ABBEVILLE        N/A     87  61  42 E3        30.00F
PATTERSON      SUNNY     88  63  42 NW5       30.01F
SALT POINT       N/A     86  64  47 VRB5      29.98F
$$

SELECTED SITES ACROSS THE REGION

CITY           SKY/WX    TMP DP  RH WIND       PRES   REMARKS
HOUSTON BUSH   MOSUNNY   88  67  49 CALM      30.00F
HOUSTON HOBBY  MOSUNNY   87  65  47 NW5       29.99F
GALVESTON      PTSUNNY   86  70  58 E9        30.01F
COLLEGE STAT   SUNNY     90  63  40 SW8       29.99F
CONROE         SUNNY     88  62  41 SW9       30.00F
HUNTSVILLE     SUNNY     92  62  36 VRB3      29.99F
LUFKIN         SUNNY     90  63  40 NW7       30.00F
SHREVEPORT     SUNNY     88  58  36 CALM      30.00F
MONROE         SUNNY     88  58  36 CALM      30.01F
NATCHEZ MS     SUNNY     88  55  33 N7        30.02F
BATON ROUGE    SUNNY     89  61  38 CALM      30.00F
N.O. INTL ARPT MOSUNNY   89  64  43 NE10      29.98F
SLIDELL        PTSUNNY   89  68  49 NE5       29.97F
$$

MARINE REPORTS

STATION/POSITION TIME  TEMP    WIND        PRES    VSBY  WAVE
                       AIR SEA DIR/SP/G                  HT/PER
                 (UTC) (F)     (DEG/KT/KT) (MB)    (MI)  (FT/S)
BUOY 30 S HIGH I 1850   83 87   50/  4/  6 1015.8F         1/ 4
SEA RIM ST PARK  1900   84     160/  9/ 12 1016.5F
PORT ARTHUR      NOT AVBL
SABINE PASS N    NOT AVBL
TEXAS POINT      NOT AVBL
CALCASIEU PASS   NOT AVBL
LK CHARLES BEACH NOT AVBL
MARSH ISLAND     1800   85      CALM  /  2   N/A           0
FRESH WATER LOCK NOT AVBL
AMERADA PASS     NOT AVBL
$$



USA.gov is the U.S. government's official web portal to all federal, state and local government web resources and services.